Location: Tel Aviv
(32.0670°N, 34.7670°E)
Time: 11:27:04
(UTC+03:00)

Explorer 11/Cluster Stage 4 - Pass Details

Date: 20 September 2024
Orbit: 464 x 1208 km, 28.8° (Epoch: 06 October)

Event Time Altitude Azimuth Distance (km) Brightness Sun altitude
Rises 03:19:39 0° 211° (SSW) 2,750 - -38.9°
Reaches altitude 10° 03:22:29 10° 189° (S) 1,975 - -38.3°
Maximum altitude 03:25:24 17° 149° (SSE) 1,707 - -37.8°
Exits shadow 03:28:14 11° 115° (ESE) 2,150 9.1 -37.3°
Drops below altitude 10° 03:28:42 10° 111° (ESE) 2,270 9.3 -37.2°
Sets 03:32:17 0° 92° (E) 3,377 10.6 -36.6°
